LRBS Weather Reports


Display with metric or nautical units.
time (UTC)temp
F
wind
direction
speed
MPH
gust
MPH
rain 1hr
in
rain 24hr
in
rain mn
in
humidity
%
barometer
mb
20260503030314 37 1.0 0.0 0.00 0.00 0.00 87 1022.0
20260503024829 39 350 5.0 0.0 0.00 0.00 0.00 81 1022.0
20260503023314 39 350 5.0 0.0 0.00 0.00 0.00 81 1022.0
20260503021814 39 350 5.0 0.0 0.00 0.00 0.00 87 1022.0
20260503020314 39 350 5.0 0.0 0.00 0.00 0.00 87 1022.0
20260503014814 41 360 5.0 0.0 0.00 0.00 0.00 81 1023.0
20260503013314 41 360 5.0 0.0 0.00 0.00 0.00 81 1023.0
20260503011814 39 360 5.0 0.0 0.00 0.00 0.00 87 1022.0
20260503010314 39 360 5.0 0.0 0.00 0.00 0.00 87 1022.0
20260503004814 41 360 3.0 0.0 0.00 0.00 0.00 87 1022.0
20260503003314 41 360 3.0 0.0 0.00 0.00 0.00 87 1022.0
20260503001814 41 20 3.0 0.0 0.00 0.00 0.00 87 1022.0
20260503000314 41 20 3.0 0.0 0.00 0.00 0.00 87 1022.0
20260502234814 41 70 3.0 0.0 0.00 0.00 0.00 87 1022.0
20260502233314 41 70 3.0 0.0 0.00 0.00 0.00 87 1022.0
20260502231814 43 340 3.0 0.0 0.00 0.00 0.00 87 1022.0
20260502230314 43 340 3.0 0.0 0.00 0.00 0.00 87 1022.0
20260502224814 45 320 5.0 0.0 0.00 0.00 0.00 81 1022.0
20260502223314 45 320 5.0 0.0 0.00 0.00 0.00 81 1022.0
20260502221814 43 320 5.0 0.0 0.00 0.00 0.00 93 1023.0
20260502220314 43 320 5.0 0.0 0.00 0.00 0.00 93 1023.0
20260502214814 43 320 5.0 0.0 0.00 0.00 0.00 87 1023.0
20260502213314 43 320 5.0 0.0 0.00 0.00 0.00 87 1023.0
20260502211814 43 310 2.0 0.0 0.00 0.00 0.00 87 1023.0
20260502210314 43 310 2.0 0.0 0.00 0.00 0.00 87 1023.0
20260502204814 43 310 2.0 0.0 0.00 0.00 0.00 87 1023.0
20260502203314 43 310 2.0 0.0 0.00 0.00 0.00 87 1023.0
20260502201814 45 1.0 0.0 0.00 0.00 0.00 87 1023.0
20260502200314 45 1.0 0.0 0.00 0.00 0.00 87 1023.0
20260502194814 46 0 0.0 0.0 0.00 0.00 0.00 82 1023.0
20260502193314 46 0 0.0 0.0 0.00 0.00 0.00 82 1023.0
20260502191814 48 2.0 0.0 0.00 0.00 0.00 76 1022.0
20260502190314 48 2.0 0.0 0.00 0.00 0.00 76 1022.0
20260502184814 48 140 3.0 0.0 0.00 0.00 0.00 76 1022.0
20260502183314 48 140 3.0 0.0 0.00 0.00 0.00 76 1022.0
20260502181814 48 170 3.0 0.0 0.00 0.00 0.00 66 1022.0
20260502180314 48 170 3.0 0.0 0.00 0.00 0.00 66 1022.0
20260502170314 52 10 6.0 0.0 0.00 0.00 0.00 50 1021.0
20260502163314 52 10 6.0 0.0 0.00 0.00 0.00 54 1021.0
20260502161814 52 20 8.0 0.0 0.00 0.00 0.00 47 1021.0
20260502160314 52 20 8.0 0.0 0.00 0.00 0.00 47 1021.0
20260502151814 54 30 9.0 0.0 0.00 0.00 0.00 54 1021.0
20260502150313 54 30 9.0 0.0 0.00 0.00 0.00 54 1021.0
20260502130314 54 50 11.0 0.0 0.00 0.00 0.00 54 1022.0
20260502123314 55 70 9.0 0.0 0.00 0.00 0.00 55 1022.0
20260502121814 52 110 14.0 0.0 0.00 0.00 0.00 62 1022.0
20260502120321 52 110 14.0 0.0 0.00 0.00 0.00 62 1022.0
20260502114814 52 90 20.0 0.0 0.00 0.00 0.00 58 1023.0
20260502113313 52 90 20.0 0.0 0.00 0.00 0.00 58 1023.0
20260502111814 55 70 13.0 0.0 0.00 0.00 0.00 51 1023.0
20260502110314 55 70 13.0 0.0 0.00 0.00 0.00 51 1023.0
20260502104814 50 340 9.0 0.0 0.00 0.00 0.00 67 1023.0
20260502103314 50 340 9.0 0.0 0.00 0.00 0.00 67 1023.0
20260502101811 54 60 14.0 0.0 0.00 0.00 0.00 54 1022.0
20260502100314 54 60 14.0 0.0 0.00 0.00 0.00 54 1022.0
20260502090314 55 70 10.0 0.0 0.00 0.00 0.00 59 1023.0
20260502070315 54 70 9.0 0.0 0.00 0.00 0.00 67 1023.0
20260502064814 52 2.0 0.0 0.00 0.00 0.00 62 1023.0
20260502063314 52 2.0 0.0 0.00 0.00 0.00 62 1023.0
20260502061814 50 230 3.0 0.0 0.00 0.00 0.00 71 1023.0
20260502060314 50 230 3.0 0.0 0.00 0.00 0.00 71 1023.0
20260502054814 46 270 5.0 0.0 0.00 0.00 0.00 82 1023.0
20260502053314 46 270 5.0 0.0 0.00 0.00 0.00 82 1023.0
20260502051814 45 340 3.0 0.0 0.00 0.00 0.00 81 1023.0
20260502050313 45 340 3.0 0.0 0.00 0.00 0.00 81 1023.0
20260502044814 45 2.0 0.0 0.00 0.00 0.00 81 1023.0
20260502043314 45 2.0 0.0 0.00 0.00 0.00 81 1023.0
20260502041814 45 2.0 0.0 0.00 0.00 0.00 87 1023.0
20260502040314 45 2.0 0.0 0.00 0.00 0.00 87 1023.0
20260502034930 43 2.0 0.0 0.00 0.00 0.00 87 1023.0
20260502033313 43 2.0 0.0 0.00 0.00 0.00 87 1023.0
20260502031814 43 3.0 0.0 0.00 0.00 0.00 87 1023.0